Location: Huesca
(42.1318°N, 0.4078°W)
Time: 21:43:28
(UTC+02:00)

DUCHIFAT 1 - Visible Passes

Search period start: 22 April 2024 00:00
Search period end: 02 May 2024 00:00
Orbit: 542 x 558 km, 98.1° (Epoch: 21 April)

Date Brightness Start Highest point End Pass type
(mag) Time Alt. Az. Time Alt. Az. Time Alt. Az.
22 Apr ? 06:29:29 10° NNE 06:33:29 65° ESE 06:37:25 10° S visible
23 Apr ? 06:25:17 10° NNE 06:29:14 57° E 06:33:09 10° S visible
24 Apr ? 06:21:02 10° NNE 06:24:56 50° E 06:28:49 10° S visible
25 Apr ? 06:16:45 10° NNE 06:20:35 44° E 06:24:24 10° S visible
26 Apr ? 06:12:25 10° NNE 06:16:11 39° E 06:19:54 10° SSE visible
27 Apr ? 06:08:03 10° NNE 06:11:43 34° E 06:15:20 10° SSE visible
28 Apr ? 06:03:38 10° NE 06:07:11 30° E 06:10:42 10° SSE visible
29 Apr ? 05:59:12 10° NE 06:02:35 26° E 06:05:58 10° SSE visible
30 Apr ? 05:54:42 10° NE 05:57:57 23° E 06:01:09 10° SSE visible
01 May ? 05:50:12 10° NE 05:53:14 21° E 05:56:15 10° SE visible
